Flag for Canada Weather past 2 weeks in Thunder Bay, Ontario, Canada

Now
55 °F

Clear.


Feels Like: 55 °F
Forecast: 46 / 55 °F
Wind: 5 mph from Northeast

Location: Thunder Bay

Current Time: May 28, 2015 at 1:16:25 AM

Latest Report: May 28, 2015 at 12:00 AM


Visibility: 15 mi

Pressure: 30.09 "Hg

Humidity: 63%

Dew point: 43 °F

Location of Thunder BayLocation

Historic Weather in Thunder Bay — Graph

°F

Thunder Bay temperature yesterday

Maximum temperature yesterday: 82 °F (at 2:00 PM)
Minimum temperature yesterday: 50 °F (at 3:00 AM)
Average temperature yesterday: 63 °F

Past Weeks' High & Low Weather Summary

 TemperatureHumidityPressure
High82 °F (May 23, 3:00 PM)100% (May 13, 12:00 AM)30.50 "Hg (May 13, 12:00 AM)
Low27 °F (May 22, 6:00 AM)15% (May 21, 6:00 PM)29.61 "Hg (May 18, 2:52 AM)
Average51 °F69%30.04 "Hg
* Reported Midnight between May 12 and May 13 — Midnight between May 27 and May 28, Thunder Bay, Weather by CustomWeather, © 2015

Note: Actual official high and low records may vary slightly from our data, if they occured in-between our weather recording intervals... More about our weather records

Advertising

Thunder Bay weather history for previous 24 hours

 ConditionsComfort  
Time TempWeatherWind HumidityBarometerVisibility
12:00 AM
Thu, May 28
55 °FClear.5 mph63%30.09 "Hg15 mi
11:00 PM
Wed, May 27
57 °FPassing clouds.5 mph59%30.07 "Hg20 mi
10:00 PM59 °FPassing clouds.9 mph55%30.03 "Hg20 mi
9:00 PM64 °FPassing clouds.10 mph49%29.99 "Hg20 mi
8:00 PM66 °FPassing clouds.12 mph49%29.95 "Hg20 mi
7:00 PM68 °FPassing clouds.13 mph53%29.92 "Hg20 mi
6:00 PM70 °FScattered clouds.14 mph53%29.90 "Hg20 mi
5:00 PM70 °FPartly sunny.14 mph57%29.86 "Hg20 mi
4:00 PM66 °FPartly sunny.9 mph73%29.83 "Hg20 mi
3:53 PM66 °FSprinkles. Partly sunny.13 mph73%29.83 "Hg20 mi
3:00 PM72 °FPartly sunny.10 mph53%29.79 "Hg20 mi
2:00 PM82 °FPleasantly warm.6 mph30%29.76 "HgN/A
1:00 PM79 °FOvercast.12 mph34%29.75 "Hg20 mi
12:00 PM73 °FBroken clouds.8 mph53%29.75 "Hg20 mi
11:00 AM70 °FPartly sunny.7 mph60%29.76 "Hg20 mi
10:00 AM72 °FBroken clouds.12 mph57%29.73 "Hg20 mi
9:00 AM63 °FPartly sunny.7 mph77%29.73 "Hg20 mi
8:00 AM57 °FBroken clouds.6 mph88%29.72 "Hg20 mi
7:00 AM52 °FPassing clouds.3 mph100%29.71 "Hg20 mi
6:00 AM52 °FPassing clouds.5 mph100%29.71 "Hg15 mi
5:00 AM52 °FPassing clouds.3 mph100%29.71 "Hg15 mi
4:00 AM50 °FPartly cloudy.3 mph100%29.70 "Hg15 mi
3:00 AM50 °FPartly cloudy.3 mph100%29.72 "Hg15 mi
2:00 AM52 °FPassing clouds.No wind100%29.73 "Hg15 mi
1:00 AM54 °FPassing clouds.3 mph94%29.76 "Hg15 mi
Weather by CustomWeather, © 2015

See weather overviewHow to use our weather pages